Bratislava, Slovakia

11:55 PM CEST on April 21, 2018 (GMT +0200)
M.R. Stefanik

Weather History for LZIB - April, 2013

Change the Weather History Date:

Monday, April 1, 2013

  Actual Average Record
Temperature  
Mean Temperature 36 °F -  
Max Temperature 42 °F 59 °F 72 °F (2017)
Min Temperature 30 °F 41 °F 30 °F (2013)
Degree Days  
Heating Degree Days 29    
Moisture  
Dew Point 27 °F    
Average Humidity 68    
Maximum Humidity 86    
Minimum Humidity 41    
Precipitation  
Precipitation 0.00 in - - ()
Sea Level Pressure  
Sea Level Pressure 29.81 in    
Wind  
Wind Speed 7 mph ()    
Max Wind Speed 13 mph    
Max Gust Speed -    
Visibility 7.6 miles    
Events      
Averages and records for this station are not official NWS values.
T = Trace of Precipitation, MM = Missing Value Source: Averaged Metar Reports

Daily Weather History Graph

Daily Weather History Graph

Search for Another Location

Airport or City:

Astronomy

Apr. 01, 2013 Rise Set
Actual Time 6:29 AM CEST 7:21 PM CEST
Civil Twilight 5:57 AM CEST 7:53 PM CEST
Nautical Twilight 5:20 AM CEST 8:31 PM CEST
Astronomical Twilight 4:40 AM CEST 9:11 PM CEST
Moon 12:31 AM CEST (4/1) 9:37 AM CEST (4/1)
Length of Visible Light 13h 55m
Length of Day
12h 52m
Waning Gibbous, 70% of the Moon is Illuminated
Apr 1
Waning Gibbous
Apr 3
Last Quarter
Apr 10
New
Apr 18
First Quarter
Apr 25
Full

Hourly Weather History & Observations

Time (CEST) Temp. Windchill Dew Point Humidity Pressure Visibility Wind Dir Wind Speed Gust Speed Precip Events Conditions
12:00 AM 33 °F - 27 °F 70% 29.75 in 6 mi NNW 11.2 mph - -   Scattered Clouds
12:00 AM 32.0 °F 22.5 °F 26.6 °F 80% 29.71 in 6.2 mi NNW 12.7 mph - N/A   Partly Cloudy
12:30 AM 32.0 °F 24.8 °F 26.6 °F 80% 29.71 in 6.2 mi WNW 8.1 mph - N/A   Partly Cloudy
1:00 AM 32 °F - 27 °F 74% 29.76 in 6 mi WNW 8.9 mph - -   Scattered Clouds
1:00 AM 32.0 °F 24.2 °F 26.6 °F 80% 29.71 in 6.2 mi WNW 9.2 mph - N/A   Partly Cloudy
1:30 AM 32.0 °F 24.8 °F 26.6 °F 80% 29.74 in 6.2 mi NW 8.1 mph - N/A   Partly Cloudy
2:00 AM 31 °F - 27 °F 79% 29.77 in 6 mi WNW 8.9 mph - -   Partly Cloudy
2:00 AM 32.0 °F 24.2 °F 26.6 °F 80% 29.74 in - NW 9.2 mph - N/A   Clear
2:30 AM 32.0 °F 23.0 °F 26.6 °F 80% 29.74 in - NNW 11.5 mph - N/A   Clear
3:00 AM 32 °F - 27 °F 75% 29.76 in 6 mi NNW 8.9 mph - -   Clear
3:00 AM 32.0 °F 24.2 °F 26.6 °F 80% 29.71 in - NNW 9.2 mph - N/A   Clear
3:30 AM 32.0 °F 24.2 °F 26.6 °F 80% 29.74 in - NNW 9.2 mph - N/A   Clear
4:00 AM 31 °F - 26 °F 75% 29.77 in 6 mi NW 6.7 mph - -   Scattered Clouds
4:00 AM 32.0 °F 26.4 °F 26.6 °F 80% 29.74 in - NNW 5.8 mph - N/A   Clear
4:30 AM 30.2 °F 23.4 °F 26.6 °F 86% 29.74 in - NW 6.9 mph - N/A   Clear
5:00 AM 31 °F - 27 °F 79% 29.78 in 4 mi WNW 8.9 mph - -   Mist
5:00 AM 30.2 °F 22.6 °F 26.6 °F 86% 29.74 in 4.3 mi WNW 8.1 mph - N/A   Scattered Clouds
5:30 AM 32.0 °F 24.2 °F 26.6 °F 80% 29.74 in 4.3 mi NW 9.2 mph - N/A   Mostly Cloudy
6:00 AM 31 °F - 27 °F 81% 29.79 in 5 mi WNW 6.7 mph - -   Mist
6:00 AM 30.2 °F 23.4 °F 26.6 °F 86% 29.74 in 5.0 mi WNW 6.9 mph - N/A   Unknown
6:30 AM 30.2 °F 23.4 °F 26.6 °F 86% 29.77 in 4.3 mi WNW 6.9 mph - N/A   Partly Cloudy
7:00 AM 30 °F - 27 °F 83% 29.81 in 5 mi West 8.9 mph - -   Mist
7:00 AM 30.2 °F 21.9 °F 26.6 °F 86% 29.77 in 5.0 mi West 9.2 mph - N/A   Mostly Cloudy
7:30 AM 30.2 °F 21.9 °F 26.6 °F 86% 29.77 in 5.0 mi WNW 9.2 mph - N/A   Scattered Clouds
8:00 AM 31 °F - 27 °F 78% 29.81 in 5 mi WNW 6.7 mph - -   Mist
8:00 AM 30.2 °F 24.3 °F 26.6 °F 86% 29.77 in 5.0 mi WNW 5.8 mph - N/A   Mostly Cloudy
8:30 AM 33.8 °F 27.0 °F 26.6 °F 75% 29.77 in 5.6 mi West 8.1 mph - N/A   Partly Cloudy
9:00 AM 34 °F - 28 °F 69% 29.83 in 6 mi WNW 8.9 mph - -   Scattered Clouds
9:00 AM 33.8 °F 27.0 °F 26.6 °F 75% 29.80 in 6.2 mi WNW 8.1 mph - N/A   Partly Cloudy
9:30 AM 35.6 °F 28.6 °F 28.4 °F 75% 29.80 in 6.2 mi WNW 9.2 mph - N/A   Partly Cloudy
10:00 AM 36 °F - 28 °F 63% 29.83 in 7 mi WNW 8.9 mph - -   Scattered Clouds
10:00 AM 35.6 °F 28.6 °F 28.4 °F 75% 29.80 in 6.2 mi WNW 9.2 mph - N/A   Partly Cloudy
10:30 AM 37.4 °F 30.8 °F 28.4 °F 70% 29.80 in 6.2 mi NW 9.2 mph - N/A   Partly Cloudy
11:00 AM 38 °F - 27 °F 53% 29.83 in 16 mi NW 8.9 mph - -   Partly Cloudy
11:00 AM 37.4 °F 30.8 °F 26.6 °F 65% 29.80 in 6.2 mi NNW 9.2 mph - N/A   Scattered Clouds
11:30 AM 37.4 °F 32.1 °F 26.6 °F 65% 29.80 in 6.2 mi North 6.9 mph - N/A   Mostly Cloudy
12:00 PM 40 °F - 25 °F 43% 29.84 in 16 mi NW 4.5 mph - -   Partly Cloudy
12:00 PM 39.2 °F 35.9 °F 24.8 °F 56% 29.80 in 6.2 mi NNW 4.6 mph - N/A   Scattered Clouds
12:30 PM 39.2 °F 33.0 °F 24.8 °F 56% 29.80 in 6.2 mi NNW 9.2 mph - N/A   Scattered Clouds
1:00 PM 40 °F - 25 °F 41% 29.84 in 16 mi NNW 8.9 mph - -   Partly Cloudy
1:00 PM 39.2 °F 33.0 °F 23.0 °F 52% 29.80 in 6.2 mi NNW 9.2 mph - N/A   Scattered Clouds
1:30 PM 41.0 °F 36.4 °F 24.8 °F 53% 29.80 in 6.2 mi North 6.9 mph - N/A   Mostly Cloudy
2:00 PM 40 °F - 25 °F 42% 29.85 in 16 mi NNW 6.7 mph - -   Mostly Cloudy
2:00 PM 39.2 °F 34.2 °F 24.8 °F 56% 29.83 in 6.2 mi North 6.9 mph - N/A   Mostly Cloudy
2:30 PM 39.2 °F 34.2 °F 24.8 °F 56% 29.83 in 6.2 mi North 6.9 mph - N/A   Mostly Cloudy
3:00 PM 40 °F - 25 °F 42% 29.85 in 16 mi WNW 6.7 mph - -   Mostly Cloudy
3:00 PM 41.0 °F 36.4 °F 24.8 °F 53% 29.83 in 6.2 mi NW 6.9 mph - N/A   Mostly Cloudy
3:30 PM 41.0 °F 37.1 °F 24.8 °F 53% 29.83 in 6.2 mi WNW 5.8 mph - N/A   Mostly Cloudy
4:00 PM 40 °F - 26 °F 45% 29.86 in 16 mi 2.2 mph - -   Mostly Cloudy
4:00 PM 41.0 °F 39.0 °F 24.8 °F 53% 29.83 in 6.2 mi NW 3.5 mph - N/A   Mostly Cloudy
4:30 PM 39.2 °F - 24.8 °F 56% 29.83 in 6.2 mi Variable 2.3 mph - N/A   Mostly Cloudy
5:00 PM 40 °F - 26 °F 44% 29.86 in 16 mi 2.2 mph - -   Mostly Cloudy
5:00 PM 39.2 °F - 24.8 °F 56% 29.83 in 6.2 mi Variable 2.3 mph - N/A   Mostly Cloudy
5:30 PM 39.2 °F - 24.8 °F 56% 29.83 in 6.2 mi Variable 2.3 mph - N/A   Overcast
6:00 PM 39 °F - 26 °F 47% 29.86 in 16 mi Calm Calm - -   Overcast
6:00 PM 39.2 °F - 24.8 °F 56% 29.83 in 6.2 mi Variable 1.2 mph - N/A   Overcast
6:30 PM 39.2 °F - 24.8 °F 56% 29.83 in 6.2 mi NNE 1.2 mph - N/A   Overcast
7:00 PM 39 °F - 25 °F 45% 29.87 in 16 mi Calm Calm - -   Overcast
7:00 PM 39.2 °F - 24.8 °F 56% 29.83 in 6.2 mi Variable 1.2 mph - N/A   Overcast
7:30 PM 39.2 °F - 26.6 °F 61% 29.83 in 6.2 mi Variable 1.2 mph - N/A   Overcast
8:00 PM 38 °F - 29 °F 58% 29.88 in 12 mi NE 4.5 mph - -   Overcast
8:00 PM 37.4 °F 34.9 °F 28.4 °F 70% 29.86 in 6.2 mi NE 3.5 mph - N/A   Overcast
8:30 PM 37.4 °F 34.9 °F 30.2 °F 75% 29.86 in 6.2 mi East 3.5 mph - N/A   Overcast
9:00 PM 38 °F - 29 °F 59% 29.90 in 12 mi East 2.2 mph - -   Overcast
9:00 PM 37.4 °F - 28.4 °F 70% 29.86 in 6.2 mi East 1.2 mph - N/A   Overcast
9:30 PM 37.4 °F 34.9 °F 30.2 °F 75% 29.86 in 6.2 mi ENE 3.5 mph - N/A   Overcast
10:00 PM 37 °F - 30 °F 69% 29.91 in 12 mi East 4.5 mph - -   Overcast
10:00 PM 37.4 °F 33.8 °F 30.2 °F 75% 29.86 in 6.2 mi East 4.6 mph - N/A   Overcast
10:30 PM 37.4 °F 33.8 °F 30.2 °F 75% 29.86 in 6.2 mi East 4.6 mph - N/A   Overcast
11:00 PM 37 °F - 31 °F 70% 29.90 in 12 mi ENE 4.5 mph - -   Overcast
11:00 PM 37.4 °F 33.8 °F 30.2 °F 75% 29.86 in 6.2 mi East 4.6 mph - N/A   Overcast
11:30 PM 35.6 °F 32.8 °F 30.2 °F 81% 29.86 in 6.2 mi NE 3.5 mph - N/A   Overcast